DAL304 KATL-CYVR

Flight info

Callsign DAL304
Flight time N/A
Altitude 40000
Route THRSR332013 BNA ROTTN/N0489F400 KATES GILTE DPR LEWIT BOOTH CANUC6
Aircraft MD11/H-SDE1E2E3FGHIJ2J3J4J5M1RWXY/LB1D1

Departure

Time N/A
Airport Hartsfield Jackson Atlanta International Airport (KATL)

Arrival

Time 2026-05-08 04:49
Airport Vancouver International Airport (CYVR)
Time Latitude Longitude Altitude Speed Heading
2026-05-08 03:48 47.46713 -110.51686 39961 ft 371 kts 292°
2026-05-08 03:49 47.47577 -110.55303 39951 ft 375 kts 291°
2026-05-08 03:49 47.49324 -110.62661 39946 ft 383 kts 291°
2026-05-08 03:50 47.51100 -110.70169 39948 ft 391 kts 291°
2026-05-08 03:50 47.52913 -110.77860 39944 ft 401 kts 291°
2026-05-08 03:51 47.54759 -110.85726 39947 ft 413 kts 291°
2026-05-08 03:51 47.56664 -110.93872 39954 ft 424 kts 291°
2026-05-08 03:52 47.58606 -111.02210 39964 ft 423 kts 291°
2026-05-08 03:52 47.60525 -111.10488 39978 ft 432 kts 291°
2026-05-08 03:53 47.62496 -111.19011 39984 ft 440 kts 291°
2026-05-08 03:53 47.64427 -111.27417 39980 ft 416 kts 291°
2026-05-08 03:53 47.65344 -111.31422 39979 ft 404 kts 291°
2026-05-08 03:54 47.66236 -111.35320 39979 ft 393 kts 291°
2026-05-08 03:54 47.67989 -111.43023 39986 ft 402 kts 290°
2026-05-08 03:55 47.69764 -111.51033 39974 ft 415 kts 290°
2026-05-08 03:55 47.73058 -111.65948 39971 ft 435 kts 291°
2026-05-08 03:56 47.76726 -111.82390 39960 ft 379 kts 291°
2026-05-08 03:56 47.78285 -111.89422 39921 ft 338 kts 291°
2026-05-08 03:56 47.79726 -111.95872 40251 ft 320 kts 291°
2026-05-08 03:56 47.81108 -112.01942 41062 ft 300 kts 292°
2026-05-08 03:57 47.82475 -112.07794 41176 ft 301 kts 292°
2026-05-08 03:57 47.85367 -112.19493 41307 ft 304 kts 294°
2026-05-08 03:58 47.88506 -112.31230 41466 ft 305 kts 295°
2026-05-08 03:58 47.91894 -112.42872 41651 ft 307 kts 297°
2026-05-08 03:59 47.95556 -112.54379 41809 ft 308 kts 298°
2026-05-08 03:59 47.99524 -112.65725 41957 ft 308 kts 301°
2026-05-08 04:00 48.03804 -112.76766 42070 ft 308 kts 303°
2026-05-08 04:00 48.07030 -112.87634 41429 ft 336 kts 276°
2026-05-08 04:00 48.06936 -112.94683 40692 ft 343 kts 274°
2026-05-08 04:01 48.06738 -113.01712 40030 ft 330 kts 274°
2026-05-08 04:01 48.06469 -113.13676 40012 ft 324 kts 278°
2026-05-08 04:02 48.07959 -113.26646 40020 ft 313 kts 290°
2026-05-08 04:02 48.10393 -113.39127 40009 ft 312 kts 292°
2026-05-08 04:03 48.12937 -113.51548 40037 ft 312 kts 291°
2026-05-08 04:03 48.16747 -113.70159 39994 ft 312 kts 291°
2026-05-08 04:04 48.19220 -113.82492 40045 ft 307 kts 291°
2026-05-08 04:04 48.21651 -113.94724 39983 ft 308 kts 290°
2026-05-08 04:05 48.24109 -114.07012 40006 ft 309 kts 291°
2026-05-08 04:05 48.26559 -114.19308 40019 ft 308 kts 291°
2026-05-08 04:06 48.29002 -114.31639 40013 ft 307 kts 290°
2026-05-08 04:06 48.31416 -114.43910 39980 ft 306 kts 290°
2026-05-08 04:07 48.33820 -114.56207 39980 ft 306 kts 290°
2026-05-08 04:07 48.36209 -114.68502 39972 ft 306 kts 290°
2026-05-08 04:08 48.38569 -114.80731 39976 ft 305 kts 290°
2026-05-08 04:08 48.40923 -114.93001 39958 ft 304 kts 289°
2026-05-08 04:09 48.43207 -115.05239 39963 ft 304 kts 290°
2026-05-08 04:09 48.45110 -115.15412 39955 ft 304 kts 290°
2026-05-08 04:10 48.47442 -115.27806 39953 ft 316 kts 290°
2026-05-08 04:10 48.49896 -115.40923 39946 ft 335 kts 289°
2026-05-08 04:11 48.51176 -115.47806 39950 ft 346 kts 289°
2026-05-08 04:11 48.52498 -115.54936 39901 ft 359 kts 289°
2026-05-08 04:11 48.53862 -115.62326 39941 ft 372 kts 289°
2026-05-08 04:11 48.55266 -115.69967 39956 ft 383 kts 289°
2026-05-08 04:12 48.56709 -115.77855 39947 ft 397 kts 289°
2026-05-08 04:12 48.58187 -115.85968 39965 ft 402 kts 288°
2026-05-08 04:12 48.61130 -116.02232 39966 ft 405 kts 288°
2026-05-08 04:13 48.64050 -116.18565 39983 ft 402 kts 288°
2026-05-08 04:13 48.66902 -116.34972 40012 ft 403 kts 288°
2026-05-08 04:14 48.69780 -116.51349 40011 ft 404 kts 288°
2026-05-08 04:14 48.72649 -116.67792 40041 ft 404 kts 288°
2026-05-08 04:15 48.75504 -116.84305 40026 ft 404 kts 288°
2026-05-08 04:15 48.78329 -117.00799 40023 ft 404 kts 288°
2026-05-08 04:16 48.81147 -117.17396 40015 ft 407 kts 287°
2026-05-08 04:16 48.83918 -117.33908 40047 ft 403 kts 288°
2026-05-08 04:17 48.86619 -117.50461 39983 ft 404 kts 287°
2026-05-08 04:17 48.91684 -117.81480 39918 ft 404 kts 288°
2026-05-08 04:18 48.96994 -118.14497 40018 ft 397 kts 287°
2026-05-08 04:18 49.02154 -118.47182 40054 ft 394 kts 287°
2026-05-08 04:19 49.04673 -118.63394 39895 ft 397 kts 287°
2026-05-08 04:19 49.07108 -118.79651 39984 ft 390 kts 287°
2026-05-08 04:19 49.12037 -119.12235 39905 ft 396 kts 286°
2026-05-08 04:20 49.14465 -119.28527 40009 ft 392 kts 286°
2026-05-08 04:20 49.16846 -119.44660 40030 ft 395 kts 286°
2026-05-08 04:20 49.19233 -119.60996 39896 ft 394 kts 286°
2026-05-08 04:20 49.20753 -119.71493 39986 ft 394 kts 285°
2026-05-08 04:21 49.23090 -119.87826 40025 ft 392 kts 285°
2026-05-08 04:21 49.25700 -120.06692 40030 ft 391 kts 284°
2026-05-08 04:22 49.30260 -120.39433 40073 ft 394 kts 284°
2026-05-08 04:22 49.34747 -120.72336 40073 ft 394 kts 284°
2026-05-08 04:23 49.39130 -121.05243 40098 ft 393 kts 284°
2026-05-08 04:23 49.43255 -121.37539 40131 ft 396 kts 284°
2026-05-08 04:24 49.44365 -121.46190 40123 ft 392 kts 284°
2026-05-08 04:24 49.44869 -121.50159 40003 ft 360 kts 283°
2026-05-08 04:24 49.45325 -121.53793 39223 ft 339 kts 283°
2026-05-08 04:25 49.45798 -121.57498 37256 ft 357 kts 283°
2026-05-08 04:25 49.46275 -121.61237 35856 ft 355 kts 283°
2026-05-08 04:25 49.46738 -121.64893 34729 ft 350 kts 283°
2026-05-08 04:25 49.47201 -121.68561 33455 ft 348 kts 282°
2026-05-08 04:26 49.47659 -121.72203 32179 ft 344 kts 282°
2026-05-08 04:26 49.48183 -121.76371 29585 ft 365 kts 282°
2026-05-08 04:26 49.48667 -121.80233 27809 ft 367 kts 282°
2026-05-08 04:26 49.49144 -121.84068 26348 ft 362 kts 282°
2026-05-08 04:27 49.49610 -121.87835 24999 ft 355 kts 282°
2026-05-08 04:27 49.50069 -121.91550 23688 ft 351 kts 283°
2026-05-08 04:27 49.50522 -121.95217 22235 ft 346 kts 282°
2026-05-08 04:27 49.50965 -121.98817 20789 ft 342 kts 283°
2026-05-08 04:28 49.51397 -122.02406 19505 ft 337 kts 281°
2026-05-08 04:28 49.51396 -122.05987 18259 ft 339 kts 262°
2026-05-08 04:28 49.50572 -122.09394 16863 ft 341 kts 244°
2026-05-08 04:28 49.49356 -122.12520 15639 ft 338 kts 239°
2026-05-08 04:29 49.48068 -122.15513 14514 ft 334 kts 238°
2026-05-08 04:29 49.46798 -122.18467 13383 ft 330 kts 239°
2026-05-08 04:29 49.45570 -122.21400 12954 ft 329 kts 239°
2026-05-08 04:29 49.44357 -122.24348 12568 ft 327 kts 240°
2026-05-08 04:30 49.43156 -122.27314 12253 ft 324 kts 239°
2026-05-08 04:30 49.41973 -122.30258 12166 ft 324 kts 240°
2026-05-08 04:30 49.40790 -122.33216 12160 ft 324 kts 239°
2026-05-08 04:30 49.39588 -122.36124 12164 ft 319 kts 238°
2026-05-08 04:31 49.38415 -122.38878 12160 ft 304 kts 238°
2026-05-08 04:31 49.37256 -122.41583 12159 ft 301 kts 238°
2026-05-08 04:31 49.36105 -122.44268 12170 ft 301 kts 238°
2026-05-08 04:31 49.34956 -122.46946 12163 ft 301 kts 238°
2026-05-08 04:32 49.33808 -122.49627 12173 ft 301 kts 238°
2026-05-08 04:32 49.32662 -122.52299 12169 ft 301 kts 238°
2026-05-08 04:32 49.31507 -122.54989 12168 ft 302 kts 237°
2026-05-08 04:32 49.30355 -122.57670 12169 ft 301 kts 238°
2026-05-08 04:33 49.29203 -122.60349 12170 ft 301 kts 237°
2026-05-08 04:33 49.28051 -122.63028 12178 ft 301 kts 238°
2026-05-08 04:33 49.26901 -122.65697 12163 ft 300 kts 238°
2026-05-08 04:33 49.25749 -122.68369 12166 ft 301 kts 238°
2026-05-08 04:34 49.24743 -122.71157 12161 ft 299 kts 253°
2026-05-08 04:34 49.24494 -122.74271 12186 ft 296 kts 274°
2026-05-08 04:34 49.24744 -122.77403 12170 ft 296 kts 281°
2026-05-08 04:34 49.25119 -122.80498 12164 ft 298 kts 282°
2026-05-08 04:35 49.25514 -122.83575 12169 ft 299 kts 282°
2026-05-08 04:35 49.25913 -122.86747 12170 ft 299 kts 282°
2026-05-08 04:35 49.26293 -122.89835 12175 ft 299 kts 281°
2026-05-08 04:35 49.26671 -122.92971 12176 ft 300 kts 281°
2026-05-08 04:36 49.27042 -122.96113 12169 ft 300 kts 281°
2026-05-08 04:36 49.27409 -122.99254 12167 ft 300 kts 281°
2026-05-08 04:36 49.27680 -123.01581 12167 ft 300 kts 281°
2026-05-08 04:36 49.28049 -123.04731 12169 ft 300 kts 281°
2026-05-08 04:37 49.28419 -123.07860 11950 ft 297 kts 281°
2026-05-08 04:37 49.28787 -123.10964 11408 ft 297 kts 281°
2026-05-08 04:37 49.29157 -123.14092 10893 ft 298 kts 281°
2026-05-08 04:37 49.29527 -123.17217 10410 ft 297 kts 280°
2026-05-08 04:38 49.29892 -123.20311 9979 ft 294 kts 280°
2026-05-08 04:38 49.30254 -123.23388 9481 ft 292 kts 280°
2026-05-08 04:38 49.30599 -123.26404 9029 ft 290 kts 279°
2026-05-08 04:38 49.30935 -123.29478 8558 ft 288 kts 279°
2026-05-08 04:39 49.31259 -123.32466 8089 ft 287 kts 279°
2026-05-08 04:39 49.31583 -123.35468 7771 ft 280 kts 279°
2026-05-08 04:39 49.31895 -123.38349 7626 ft 268 kts 279°
2026-05-08 04:39 49.32192 -123.41105 7508 ft 255 kts 279°
2026-05-08 04:40 49.32477 -123.43735 7388 ft 245 kts 278°
2026-05-08 04:40 49.32742 -123.46277 7165 ft 240 kts 277°
2026-05-08 04:40 49.32987 -123.48801 6864 ft 239 kts 277°
2026-05-08 04:40 49.33225 -123.51309 6580 ft 238 kts 277°
2026-05-08 04:41 49.33464 -123.53821 6279 ft 236 kts 277°
2026-05-08 04:41 49.33697 -123.56270 5991 ft 235 kts 277°
2026-05-08 04:41 49.33912 -123.58743 5661 ft 232 kts 271°
2026-05-08 04:41 49.33560 -123.61109 5379 ft 227 kts 239°
2026-05-08 04:42 49.32464 -123.62802 5062 ft 225 kts 207°
2026-05-08 04:42 49.30970 -123.63434 4726 ft 224 kts 187°
2026-05-08 04:42 49.29421 -123.63683 4421 ft 223 kts 185°
2026-05-08 04:42 49.27878 -123.63917 4142 ft 222 kts 185°
2026-05-08 04:43 49.26360 -123.64038 3810 ft 222 kts 172°
2026-05-08 04:43 49.24944 -123.63130 3412 ft 225 kts 140°
2026-05-08 04:43 49.24073 -123.61192 3136 ft 221 kts 109°
2026-05-08 04:43 49.23677 -123.58947 3100 ft 219 kts 104°
2026-05-08 04:44 49.23273 -123.56715 3092 ft 218 kts 105°
2026-05-08 04:44 49.22893 -123.54462 3095 ft 218 kts 103°
2026-05-08 04:44 49.22568 -123.52189 3092 ft 218 kts 100°
2026-05-08 04:44 49.22309 -123.49900 3093 ft 218 kts 99°
2026-05-08 04:45 49.22057 -123.47609 3097 ft 218 kts 99°
2026-05-08 04:45 49.21801 -123.45314 3093 ft 218 kts 99°
2026-05-08 04:45 49.21550 -123.43086 3011 ft 198 kts 99°
2026-05-08 04:45 49.21334 -123.41181 2723 ft 167 kts 99°
2026-05-08 04:46 49.21150 -123.39560 2479 ft 150 kts 99°
2026-05-08 04:46 49.20974 -123.38012 2307 ft 146 kts 99°
2026-05-08 04:46 49.20799 -123.36476 2157 ft 147 kts 100°
2026-05-08 04:46 49.20624 -123.34934 1964 ft 147 kts 100°
2026-05-08 04:47 49.20447 -123.33385 1758 ft 148 kts 100°
2026-05-08 04:47 49.20271 -123.31836 1563 ft 148 kts 100°
2026-05-08 04:47 49.20095 -123.30293 1349 ft 148 kts 101°
2026-05-08 04:47 49.19919 -123.28751 1156 ft 147 kts 100°
2026-05-08 04:48 49.19744 -123.27208 953 ft 147 kts 99°
2026-05-08 04:48 49.19567 -123.25664 731 ft 148 kts 100°
2026-05-08 04:48 49.19391 -123.24119 527 ft 148 kts 99°
2026-05-08 04:48 49.19216 -123.22584 312 ft 148 kts 99°
2026-05-08 04:49 49.19042 -123.21021 105 ft 148 kts 99°
2026-05-08 04:49 49.18879 -123.19551 32 ft 128 kts 101°
2026-05-08 04:49 49.18755 -123.18420 32 ft 90 kts 98°
2026-05-08 04:49 49.18678 -123.17809 32 ft 23 kts 102°
2026-05-08 04:50 49.18674 -123.17665 32 ft 11 kts 78°
2026-05-08 04:50 49.18698 -123.17543 32 ft 13 kts 70°
2026-05-08 04:50 49.18723 -123.17432 32 ft 8 kts 72°
2026-05-08 04:50 49.18745 -123.17340 32 ft 11 kts 64°
2026-05-08 04:51 49.18810 -123.17306 32 ft 6 kts 335°
2026-05-08 04:51 49.18825 -123.17349 32 ft 6 kts 288°
2026-05-08 04:51 49.18836 -123.17421 32 ft 7 kts 282°
2026-05-08 04:51 49.18848 -123.17506 32 ft 12 kts 282°
2026-05-08 04:52 49.18863 -123.17619 31 ft 15 kts 281°
2026-05-08 04:52 49.18877 -123.17776 32 ft 15 kts 280°
2026-05-08 04:52 49.18895 -123.17934 32 ft 15 kts 279°
2026-05-08 04:52 49.18911 -123.18089 32 ft 15 kts 279°
2026-05-08 04:53 49.18928 -123.18242 32 ft 14 kts 281°
2026-05-08 04:53 49.18948 -123.18378 32 ft 13 kts 286°
2026-05-08 04:53 49.18970 -123.18456 32 ft 12 kts 302°
2026-05-08 04:53 49.19013 -123.18512 32 ft 11 kts 324°
2026-05-08 04:54 49.19037 -123.18539 32 ft 16 kts 324°
2026-05-08 04:54 49.19081 -123.18587 32 ft 18 kts 323°
2026-05-08 04:54 49.19140 -123.18669 32 ft 17 kts 319°
2026-05-08 04:55 49.19230 -123.18729 31 ft 14 kts 357°
2026-05-08 04:55 49.19256 -123.18729 32 ft 13 kts
2026-05-08 04:55 49.19312 -123.18709 32 ft 13 kts 13°
2026-05-08 04:55 49.19374 -123.18697 30 ft 5 kts 350°
2026-05-08 04:56 49.19382 -123.18702 32 ft 5 kts 341°
2026-05-08 04:56 49.19401 -123.18714 32 ft 3 kts 336°
2026-05-08 04:56 49.19438 -123.18736 31 ft 9 kts 343°
2026-05-08 04:57 49.19495 -123.18731 32 ft 7 kts
2026-05-08 04:57 49.19541 -123.18718 32 ft 12 kts 11°
2026-05-08 04:57 49.19627 -123.18697 32 ft 13 kts
2026-05-08 04:57 49.19697 -123.18659 32 ft 8 kts 41°
2026-05-08 04:58 49.19710 -123.18558 32 ft 10 kts 95°
2026-05-08 04:58 49.19700 -123.18456 32 ft 9 kts 98°
2026-05-08 04:58 49.19690 -123.18360 32 ft 9 kts 99°
2026-05-08 04:58 49.19679 -123.18268 32 ft 9 kts 102°
2026-05-08 04:59 49.19687 -123.18212 32 ft 6 kts 60°
2026-05-08 04:59 49.19720 -123.18153 32 ft 6 kts 42°
2026-05-08 04:59 49.19751 -123.18112 32 ft 6 kts 41°
2026-05-08 04:59 49.19772 -123.18085 32 ft 2 kts 40°
2026-05-08 05:00 49.19776 -123.18080 31 ft 0 kts 40°